Location: Newark
(43.8369°N, 4.3600°E)
Time: 22:22:28
(UTC+00:00)

ISS - Visible Passes

Search period start: 07 December 2019 00:00
Search period end: 17 December 2019 00:00
Orbit: 411 x 421 km, 51.6° (Epoch: 08 December)

Date Brightness Start Highest point End Pass type
(mag) Time Alt. Az. Time Alt. Az. Time Alt. Az.
07 Dec -2.6 16:37:47 10° NW 16:40:46 28° NNE 16:43:44 10° ENE visible
07 Dec -2.9 18:14:24 10° WNW 18:17:00 49° W 18:17:00 49° W visible
08 Dec -3.9 17:25:56 10° NW 17:29:18 73° NNE 17:31:04 25° ESE visible
08 Dec -0.3 19:03:31 10° W 19:04:01 12° W 19:04:01 12° W visible
09 Dec -3.5 16:37:32 10° NW 16:40:48 48° NNE 16:44:03 10° ESE visible
09 Dec -1.8 18:14:30 10° WNW 18:17:24 27° SW 18:18:22 23° SSW visible
10 Dec -2.6 17:25:48 10° WNW 17:29:02 44° SW 17:32:15 10° SE visible
11 Dec -3.5 16:37:15 10° WNW 16:40:36 75° SW 16:43:56 10° SE visible
11 Dec -0.3 18:16:18 10° WSW 18:16:48 10° SW 18:17:17 10° SW visible
12 Dec -0.7 17:26:12 10° W 17:28:31 17° SW 17:30:50 10° S visible
13 Dec -1.4 16:37:14 10° WNW 16:40:10 28° SW 16:43:07 10° SSE visible
15 Dec 0.1 16:38:28 10° WSW 16:39:31 11° SW 16:40:33 10° SSW visible
